Location: Beuerbach
(48.1459°N, 10.9174°E)
Time: 03:28:00
(UTC+00:00)

SL-08 R/B - Pass Details

Date: 23 May 2024
Orbit: 945 x 993 km, 83.0° (Epoch: 19 June)

Event Time Altitude Azimuth Distance (km) Brightness Sun altitude
Exits shadow 00:44:07 30° 200° (SSW) 1,662 5.1 -18.3°
Maximum altitude 00:47:22 75° 280° (W) 1,001 4.5 -18.0°
Drops below altitude 10° 00:53:32 10° 6° (N) 2,696 7.9 -17.6°
Sets 00:56:03 0° 8° (N) 3,641 8.9 -17.5°
